Station Historical Data
Daily Summary for August 11, 2017 Units:  English    Metric   Both
« Previous Day
Next Day »
Daily Weekly Monthly Yearly Custom
  High: Low: Average:
Temperature: 88.2 °F 67.3 °F 76.3 °F
Dew Point: 56.8 °F 46.4 °F 52.2 °F
Humidity: 54 % 25 % 44 %
Wind Speed: 12.0 mph 0.0 mph 2.3 mph
Wind Gust: 18.0 mph - -
Wind:- - SSE
Pressure: 29.92 in 29.83 in -
Precipitation: 0.00 in    
Historical Graphs
 
 
Tabular Data for August 11, 2017
Time Temperature Dew Point Pressure Wind Wind Speed Wind Gust Humidity Rainfall Rate (Hourly) solar
00:02 70.3 °F 52.9 °F 29.89 in Calm   9.0 mph 54 % 0.00 in 0.00 W/m2
00:08 70.3 °F 52.9 °F 29.89 in Calm   8.0 mph 54 % 0.00 in 0.00 W/m2
00:13 70.3 °F 52.4 °F 29.89 in SE 5.0 mph 7.0 mph 53 % 0.00 in 0.00 W/m2
00:18 70.4 °F 52.5 °F 29.89 in ESE 5.0 mph 9.0 mph 53 % 0.00 in 0.00 W/m2
00:23 70.3 °F 52.4 °F 29.89 in ESE 1.0 mph 8.0 mph 53 % 0.00 in 0.00 W/m2
00:28 70.3 °F 52.4 °F 29.89 in East 5.0 mph 13.0 mph 53 % 0.00 in 0.00 W/m2
00:33 70.3 °F 52.4 °F 29.89 in ESE 6.0 mph 13.0 mph 53 % 0.00 in 0.00 W/m2
00:38 70.4 °F 52.5 °F 29.89 in ESE 5.0 mph 9.0 mph 53 % 0.00 in 0.00 W/m2
00:43 70.3 °F 51.9 °F 29.89 in East 5.0 mph 9.0 mph 52 % 0.00 in 0.00 W/m2
00:48 70.4 °F 52.0 °F 29.89 in Calm   13.0 mph 52 % 0.00 in 0.00 W/m2
00:53 70.4 °F 52.0 °F 29.89 in ESE 12.0 mph 13.0 mph 52 % 0.00 in 0.00 W/m2
00:58 70.4 °F 52.0 °F 29.89 in Calm   9.0 mph 52 % 0.00 in 0.00 W/m2
01:03 70.4 °F 52.0 °F 29.89 in Calm   11.0 mph 52 % 0.00 in 0.00 W/m2
01:08 70.4 °F 52.0 °F 29.89 in Calm   15.0 mph 52 % 0.00 in 0.00 W/m2
01:13 70.4 °F 52.0 °F 29.89 in East 6.0 mph 11.0 mph 52 % 0.00 in 0.00 W/m2
01:18 70.4 °F 52.0 °F 29.89 in Calm   14.0 mph 52 % 0.00 in 0.00 W/m2
01:23 70.4 °F 52.0 °F 29.89 in East 4.0 mph 14.0 mph 52 % 0.00 in 0.00 W/m2
01:28 70.4 °F 52.0 °F 29.89 in East 4.0 mph 8.0 mph 52 % 0.00 in 0.00 W/m2
01:33 70.5 °F 52.0 °F 29.88 in ESE 2.0 mph 14.0 mph 52 % 0.00 in 0.00 W/m2
01:38 70.5 °F 51.5 °F 29.88 in Calm   12.0 mph 51 % 0.00 in 0.00 W/m2
01:43 70.5 °F 51.5 °F 29.89 in ESE 9.0 mph 12.0 mph 51 % 0.00 in 0.00 W/m2
01:48 70.5 °F 51.5 °F 29.89 in East 12.0 mph 12.0 mph 51 % 0.00 in 0.00 W/m2
01:53 70.5 °F 51.5 °F 29.89 in Calm   11.0 mph 51 % 0.00 in 0.00 W/m2
01:58 70.5 °F 51.5 °F 29.88 in Calm   12.0 mph 51 % 0.00 in 0.00 W/m2
02:03 70.5 °F 51.5 °F 29.88 in East 11.0 mph 18.0 mph 51 % 0.00 in 0.00 W/m2
02:08 70.5 °F 51.5 °F 29.88 in ESE 2.0 mph 16.0 mph 51 % 0.00 in 0.00 W/m2
02:13 70.5 °F 51.5 °F 29.88 in ESE 6.0 mph 14.0 mph 51 % 0.00 in 0.00 W/m2
02:18 70.5 °F 51.5 °F 29.88 in East 7.0 mph 14.0 mph 51 % 0.00 in 0.00 W/m2
02:23 70.4 °F 51.4 °F 29.88 in ESE 7.0 mph 14.0 mph 51 % 0.00 in 0.00 W/m2
02:28 70.4 °F 51.4 °F 29.88 in East 11.0 mph 16.0 mph 51 % 0.00 in 0.00 W/m2
02:33 70.4 °F 51.4 °F 29.88 in Calm   12.0 mph 51 % 0.00 in 0.00 W/m2
02:38 70.4 °F 51.4 °F 29.88 in East 6.0 mph 15.0 mph 51 % 0.00 in 0.00 W/m2
02:43 70.3 °F 50.8 °F 29.88 in East 5.0 mph 13.0 mph 50 % 0.00 in 0.00 W/m2
02:48 70.3 °F 50.8 °F 29.88 in Calm   15.0 mph 50 % 0.00 in 0.00 W/m2
02:53 70.3 °F 50.8 °F 29.88 in East 2.0 mph 14.0 mph 50 % 0.00 in 0.00 W/m2
02:58 70.2 °F 50.7 °F 29.88 in East 12.0 mph 14.0 mph 50 % 0.00 in 0.00 W/m2
03:03 70.2 °F 50.7 °F 29.88 in East 2.0 mph 14.0 mph 50 % 0.00 in 0.00 W/m2
03:04 70.2 °F 50.7 °F 29.88 in Calm   14.0 mph 50 % 0.00 in 0.00 W/m2
03:09 70.2 °F 50.7 °F 29.88 in ESE 6.0 mph 12.0 mph 50 % 0.00 in 0.00 W/m2
03:14 70.1 °F 50.6 °F 29.88 in ESE 11.0 mph 12.0 mph 50 % 0.00 in 0.00 W/m2
03:19 70.1 °F 50.6 °F 29.88 in East 5.0 mph 13.0 mph 50 % 0.00 in 0.00 W/m2
03:24 70.0 °F 50.5 °F 29.88 in ESE 11.0 mph 14.0 mph 50 % 0.00 in 0.00 W/m2
03:29 69.9 °F 50.4 °F 29.88 in East 11.0 mph 15.0 mph 50 % 0.00 in 0.00 W/m2
03:34 69.9 °F 50.4 °F 29.88 in East 11.0 mph 13.0 mph 50 % 0.00 in 0.00 W/m2
03:39 69.8 °F 50.3 °F 29.88 in East 2.0 mph 12.0 mph 50 % 0.00 in 0.00 W/m2
03:44 69.7 °F 50.2 °F 29.88 in ESE 7.0 mph 13.0 mph 50 % 0.00 in 0.00 W/m2
03:49 69.8 °F 50.3 °F 29.88 in ESE 7.0 mph 8.0 mph 50 % 0.00 in 0.00 W/m2
03:54 69.7 °F 50.2 °F 29.88 in ESE 2.0 mph 11.0 mph 50 % 0.00 in 0.00 W/m2
03:59 69.7 °F 50.2 °F 29.88 in ESE 4.0 mph 8.0 mph 50 % 0.00 in 0.00 W/m2
04:04 69.7 °F 50.2 °F 29.88 in Calm   8.0 mph 50 % 0.00 in 0.00 W/m2
04:09 69.6 °F 50.2 °F 29.88 in ESE 5.0 mph 8.0 mph 50 % 0.00 in 0.00 W/m2
04:14 69.6 °F 50.2 °F 29.88 in Calm   11.0 mph 50 % 0.00 in 0.00 W/m2
04:19 69.5 °F 50.1 °F 29.88 in ESE 2.0 mph 7.0 mph 50 % 0.00 in 0.00 W/m2
04:24 69.4 °F 50.0 °F 29.88 in East 6.0 mph 11.0 mph 50 % 0.00 in 0.00 W/m2
04:30 69.3 °F 50.4 °F 29.88 in Calm   12.0 mph 51 % 0.00 in 0.00 W/m2
04:35 69.2 °F 50.3 °F 29.88 in Calm   9.0 mph 51 % 0.00 in 0.00 W/m2
04:36 69.1 °F 50.2 °F 29.88 in ESE 7.0 mph 8.0 mph 51 % 0.00 in 0.00 W/m2
04:41 69.0 °F 49.6 °F 29.88 in ESE 6.0 mph 6.0 mph 50 % 0.00 in 0.00 W/m2
04:46 68.9 °F 50.0 °F 29.88 in Calm   6.0 mph 51 % 0.00 in 0.00 W/m2
04:51 68.8 °F 50.0 °F 29.87 in East 12.0 mph 12.0 mph 51 % 0.00 in 0.00 W/m2
04:56 68.7 °F 49.3 °F 29.88 in ESE 5.0 mph 7.0 mph 50 % 0.00 in 0.00 W/m2
04:57 68.6 °F 49.8 °F 29.88 in ESE 5.0 mph 11.0 mph 51 % 0.00 in 0.00 W/m2
05:02 68.6 °F 49.2 °F 29.88 in ESE 5.0 mph 8.0 mph 50 % 0.00 in 0.00 W/m2
05:07 68.5 °F 49.7 °F 29.88 in ESE 5.0 mph 9.0 mph 51 % 0.00 in 0.00 W/m2
05:12 68.4 °F 49.6 °F 29.88 in Calm   11.0 mph 51 % 0.00 in 0.00 W/m2
05:17 68.3 °F 49.5 °F 29.88 in ESE 7.0 mph 8.0 mph 51 % 0.00 in 0.00 W/m2
05:23 68.3 °F 49.5 °F 29.88 in ESE 5.0 mph 11.0 mph 51 % 0.00 in 0.00 W/m2
05:28 68.2 °F 49.4 °F 29.88 in ESE 5.0 mph 8.0 mph 51 % 0.00 in 0.00 W/m2
05:33 68.1 °F 49.3 °F 29.88 in ESE 1.0 mph 11.0 mph 51 % 0.00 in 0.00 W/m2
05:38 68.0 °F 49.2 °F 29.88 in Calm   8.0 mph 51 % 0.00 in 0.00 W/m2
05:43 67.8 °F 49.0 °F 29.88 in Calm   11.0 mph 51 % 0.00 in 0.00 W/m2
05:48 67.8 °F 49.0 °F 29.88 in ESE 4.0 mph 11.0 mph 51 % 0.00 in 0.00 W/m2
05:53 67.7 °F 48.9 °F 29.88 in ESE 4.0 mph 12.0 mph 51 % 0.00 in 0.00 W/m2
05:58 67.6 °F 48.8 °F 29.88 in ESE 6.0 mph 13.0 mph 51 % 0.00 in 0.00 W/m2
06:03 67.6 °F 48.8 °F 29.88 in ESE 9.0 mph 12.0 mph 51 % 0.00 in 0.00 W/m2
06:08 67.5 °F 48.8 °F 29.88 in ESE 8.0 mph 14.0 mph 51 % 0.00 in 0.00 W/m2
06:13 67.5 °F 48.8 °F 29.88 in Calm   13.0 mph 51 % 0.00 in 5.00 W/m2
06:18 67.5 °F 48.8 °F 29.89 in ESE 8.0 mph 11.0 mph 51 % 0.00 in 7.00 W/m2
06:23 67.5 °F 48.8 °F 29.88 in ESE 8.0 mph 13.0 mph 51 % 0.00 in 11.00 W/m2
06:28 67.5 °F 48.8 °F 29.88 in ESE 7.0 mph 13.0 mph 51 % 0.00 in 12.00 W/m2
06:34 67.5 °F 48.8 °F 29.88 in ESE 1.0 mph 12.0 mph 51 % 0.00 in 16.00 W/m2
06:38 67.5 °F 48.8 °F 29.88 in ESE 2.0 mph 13.0 mph 51 % 0.00 in 19.00 W/m2
06:44 67.5 °F 48.8 °F 29.89 in ESE 5.0 mph 14.0 mph 51 % 0.00 in 25.00 W/m2
06:48 67.5 °F 48.8 °F 29.89 in Calm   12.0 mph 51 % 0.00 in 35.00 W/m2
06:54 67.5 °F 48.8 °F 29.88 in ESE 1.0 mph 11.0 mph 51 % 0.00 in 47.00 W/m2
06:59 67.5 °F 48.8 °F 29.89 in Calm   11.0 mph 51 % 0.00 in 60.00 W/m2
07:04 67.5 °F 48.8 °F 29.89 in Calm   13.0 mph 51 % 0.00 in 74.00 W/m2
07:09 67.4 °F 48.7 °F 29.89 in Calm   13.0 mph 51 % 0.00 in 91.00 W/m2
07:14 67.4 °F 49.2 °F 29.89 in ESE 1.0 mph 11.0 mph 52 % 0.00 in 105.00 W/m2
07:19 67.4 °F 49.2 °F 29.89 in East 7.0 mph 15.0 mph 52 % 0.00 in 123.00 W/m2
07:24 67.3 °F 49.1 °F 29.89 in Calm   11.0 mph 52 % 0.00 in 141.00 W/m2
07:29 67.3 °F 49.1 °F 29.89 in Calm   13.0 mph 52 % 0.00 in 162.00 W/m2
07:34 67.4 °F 49.2 °F 29.89 in East 5.0 mph 14.0 mph 52 % 0.00 in 183.00 W/m2
07:44 67.4 °F 49.2 °F 29.90 in East 9.0 mph 12.0 mph 52 % 0.00 in 223.00 W/m2
07:49 67.5 °F 49.3 °F 29.90 in Calm   14.0 mph 52 % 0.00 in 243.00 W/m2
07:54 67.5 °F 49.8 °F 29.89 in Calm   12.0 mph 53 % 0.00 in 265.00 W/m2
07:59 67.6 °F 49.9 °F 29.89 in ESE 4.0 mph 13.0 mph 53 % 0.00 in 278.00 W/m2
08:04 67.7 °F 50.0 °F 29.90 in ESE 5.0 mph 12.0 mph 53 % 0.00 in 294.00 W/m2
08:09 67.9 °F 50.2 °F 29.90 in East 4.0 mph 13.0 mph 53 % 0.00 in 311.00 W/m2
08:14 68.0 °F 50.2 °F 29.90 in East 6.0 mph 11.0 mph 53 % 0.00 in 325.00 W/m2
08:19 68.2 °F 50.4 °F 29.90 in East 8.0 mph 12.0 mph 53 % 0.00 in 348.00 W/m2
08:24 68.4 °F 50.1 °F 29.90 in Calm   12.0 mph 52 % 0.00 in 364.00 W/m2
08:29 68.6 °F 50.8 °F 29.90 in ESE 1.0 mph 12.0 mph 53 % 0.00 in 380.00 W/m2
08:34 68.8 °F 51.0 °F 29.90 in Calm   11.0 mph 53 % 0.00 in 394.00 W/m2
08:39 69.0 °F 50.7 °F 29.90 in Calm   9.0 mph 52 % 0.00 in 411.00 W/m2
08:44 69.3 °F 50.9 °F 29.90 in Calm   9.0 mph 52 % 0.00 in 427.00 W/m2
08:49 69.6 °F 51.7 °F 29.90 in ESE 2.0 mph 11.0 mph 53 % 0.00 in 443.00 W/m2
08:54 69.9 °F 52.0 °F 29.90 in ESE 11.0 mph 12.0 mph 53 % 0.00 in 457.00 W/m2
08:59 70.2 °F 52.3 °F 29.90 in ESE 8.0 mph 11.0 mph 53 % 0.00 in 475.00 W/m2
09:04 70.6 °F 52.1 °F 29.90 in Calm   9.0 mph 52 % 0.00 in 490.00 W/m2
09:09 71.0 °F 52.5 °F 29.90 in ESE 4.0 mph 8.0 mph 52 % 0.00 in 504.00 W/m2
09:14 71.4 °F 52.9 °F 29.90 in ESE 1.0 mph 9.0 mph 52 % 0.00 in 520.00 W/m2
09:19 71.7 °F 53.2 °F 29.90 in ESE 1.0 mph 9.0 mph 52 % 0.00 in 534.00 W/m2
09:24 72.1 °F 53.5 °F 29.90 in Calm   9.0 mph 52 % 0.00 in 547.00 W/m2
09:29 72.5 °F 53.4 °F 29.90 in Calm   7.0 mph 51 % 0.00 in 559.00 W/m2
09:34 72.9 °F 53.7 °F 29.90 in Calm   6.0 mph 51 % 0.00 in 575.00 W/m2
09:39 73.2 °F 54.0 °F 29.90 in Calm   6.0 mph 51 % 0.00 in 591.00 W/m2
09:44 73.5 °F 54.3 °F 29.90 in Calm     51 % 0.00 in 605.00 W/m2
09:49 73.8 °F 54.6 °F 29.91 in Calm   5.0 mph 51 % 0.00 in 619.00 W/m2
09:54 74.0 °F 54.7 °F 29.91 in Calm   6.0 mph 51 % 0.00 in 633.00 W/m2
10:00 74.4 °F 54.6 °F 29.91 in ESE 2.0 mph 5.0 mph 50 % 0.00 in 647.00 W/m2
10:05 74.7 °F 54.3 °F 29.91 in Calm   8.0 mph 49 % 0.00 in 661.00 W/m2
10:10 75.0 °F 53.4 °F 29.91 in Calm   5.0 mph 47 % 0.00 in 671.00 W/m2
10:15 75.3 °F 51.9 °F 29.91 in Calm   4.0 mph 44 % 0.00 in 684.00 W/m2
10:20 75.8 °F 52.4 °F 29.91 in ESE 4.0 mph 4.0 mph 44 % 0.00 in 696.00 W/m2
10:25 76.3 °F 52.8 °F 29.91 in Calm   5.0 mph 44 % 0.00 in 710.00 W/m2
10:30 76.7 °F 53.2 °F 29.91 in Calm   6.0 mph 44 % 0.00 in 719.00 W/m2
10:35 77.1 °F 54.2 °F 29.91 in Calm   1.0 mph 45 % 0.00 in 731.00 W/m2
10:40 77.5 °F 54.5 °F 29.91 in Calm   7.0 mph 45 % 0.00 in 744.00 W/m2
10:45 77.9 °F 54.3 °F 29.91 in ESE 2.0 mph 5.0 mph 44 % 0.00 in 752.00 W/m2
10:50 78.3 °F 52.0 °F 29.91 in Calm   4.0 mph 40 % 0.00 in 761.00 W/m2
10:55 78.7 °F 52.4 °F 29.91 in Calm   4.0 mph 40 % 0.00 in 772.00 W/m2
11:00 79.1 °F 52.7 °F 29.91 in ESE 4.0 mph 5.0 mph 40 % 0.00 in 786.00 W/m2
11:05 79.5 °F 55.1 °F 29.91 in ESE 5.0 mph 7.0 mph 43 % 0.00 in 798.00 W/m2
11:10 79.7 °F 49.7 °F 29.91 in Calm   4.0 mph 35 % 0.00 in 798.00 W/m2
11:15 80.2 °F 51.6 °F 29.91 in SE 6.0 mph 8.0 mph 37 % 0.00 in 805.00 W/m2
11:20 80.7 °F 52.8 °F 29.91 in Calm   6.0 mph 38 % 0.00 in 809.00 W/m2
11:25 81.1 °F 53.1 °F 29.92 in Calm   6.0 mph 38 % 0.00 in 824.00 W/m2
11:30 81.6 °F 52.1 °F 29.92 in Calm   7.0 mph 36 % 0.00 in 835.00 W/m2
11:35 81.9 °F 50.8 °F 29.92 in SSW 4.0 mph 6.0 mph 34 % 0.00 in 844.00 W/m2
11:40 82.2 °F 50.3 °F 29.92 in Calm   7.0 mph 33 % 0.00 in 846.00 W/m2
11:45 82.5 °F 51.3 °F 29.91 in Calm   8.0 mph 34 % 0.00 in 856.00 W/m2
11:50 83.0 °F 52.6 °F 29.91 in SSW 2.0 mph 6.0 mph 35 % 0.00 in 858.00 W/m2
11:55 83.4 °F 52.1 °F 29.91 in Calm   5.0 mph 34 % 0.00 in 860.00 W/m2
12:00 83.8 °F 53.3 °F 29.91 in SW 2.0 mph 3.0 mph 35 % 0.00 in 865.00 W/m2
12:05 84.1 °F 51.1 °F 29.91 in WSW 6.0 mph 8.0 mph 32 % 0.00 in 870.00 W/m2
12:10 84.3 °F 52.1 °F 29.91 in Calm   10.0 mph 33 % 0.00 in 877.00 W/m2
12:15 84.6 °F 50.7 °F 29.91 in Calm   6.0 mph 31 % 0.00 in 868.00 W/m2
12:20 85.0 °F 51.9 °F 29.91 in Calm   2.0 mph 32 % 0.00 in 870.00 W/m2
12:25 85.2 °F 52.0 °F 29.91 in West 5.0 mph 8.0 mph 32 % 0.00 in 882.00 W/m2
12:30 85.3 °F 50.4 °F 29.90 in Calm   6.0 mph 30 % 0.00 in 888.00 W/m2
12:35 85.3 °F 50.4 °F 29.90 in WSW 4.0 mph 9.0 mph 30 % 0.00 in 886.00 W/m2
12:40 85.5 °F 50.6 °F 29.90 in WSW 2.0 mph 7.0 mph 30 % 0.00 in 881.00 W/m2
12:45 85.6 °F 50.7 °F 29.90 in West 1.0 mph 6.0 mph 30 % 0.00 in 886.00 W/m2
12:50 85.6 °F 48.8 °F 29.90 in Calm   8.0 mph 28 % 0.00 in 888.00 W/m2
12:55 85.8 °F 49.0 °F 29.90 in West 5.0 mph 6.0 mph 28 % 0.00 in 900.00 W/m2
13:00 86.3 °F 46.4 °F 29.90 in Calm   5.0 mph 25 % 0.00 in 896.00 W/m2
13:05 86.6 °F 49.7 °F 29.90 in Calm   7.0 mph 28 % 0.00 in 902.00 W/m2
13:10 86.8 °F 49.8 °F 29.90 in SW 4.0 mph 10.0 mph 28 % 0.00 in 898.00 W/m2
13:15 87.2 °F 49.2 °F 29.90 in WSW 8.0 mph 12.0 mph 27 % 0.00 in 895.00 W/m2
13:20 87.6 °F 48.5 °F 29.90 in Calm   6.0 mph 26 % 0.00 in 893.00 W/m2
13:25 87.6 °F 48.5 °F 29.90 in Calm   5.0 mph 26 % 0.00 in 888.00 W/m2
13:30 87.7 °F 49.6 °F 29.89 in Calm   5.0 mph 27 % 0.00 in 882.00 W/m2
13:35 87.7 °F 51.5 °F 29.89 in SW 4.0 mph 8.0 mph 29 % 0.00 in 877.00 W/m2
13:40 87.9 °F 52.6 °F 29.89 in West 6.0 mph 10.0 mph 30 % 0.00 in 879.00 W/m2
13:46 87.7 °F 52.5 °F 29.89 in West 2.0 mph 10.0 mph 30 % 0.00 in 879.00 W/m2
13:51 87.7 °F 52.5 °F 29.89 in SW 1.0 mph 9.0 mph 30 % 0.00 in 874.00 W/m2
13:56 87.9 °F 51.7 °F 29.89 in Calm   10.0 mph 29 % 0.00 in 874.00 W/m2
14:01 87.9 °F 53.5 °F 29.89 in SW 3.0 mph 13.0 mph 31 % 0.00 in 868.00 W/m2
14:06 87.9 °F 53.5 °F 29.89 in SW 6.0 mph 6.0 mph 31 % 0.00 in 861.00 W/m2
14:11 87.9 °F 53.5 °F 29.89 in Calm   11.0 mph 31 % 0.00 in 842.00 W/m2
14:16 88.0 °F 53.6 °F 29.89 in West 2.0 mph 9.0 mph 31 % 0.00 in 833.00 W/m2
14:21 88.2 °F 54.7 °F 29.89 in SW 1.0 mph 10.0 mph 32 % 0.00 in 838.00 W/m2
14:26 87.9 °F 54.4 °F 29.89 in WSW 9.0 mph 11.0 mph 32 % 0.00 in 838.00 W/m2
14:31 87.9 °F 53.5 °F 29.89 in West 4.0 mph 11.0 mph 31 % 0.00 in 823.00 W/m2
14:36 87.7 °F 54.2 °F 29.89 in WNW 1.0 mph 9.0 mph 32 % 0.00 in 814.00 W/m2
14:41 87.2 °F 53.8 °F 29.88 in Calm   7.0 mph 32 % 0.00 in 812.00 W/m2
14:46 86.8 °F 53.4 °F 29.88 in WSW 9.0 mph 12.0 mph 32 % 0.00 in 802.00 W/m2
14:51 86.6 °F 52.4 °F 29.88 in West 5.0 mph 9.0 mph 31 % 0.00 in 793.00 W/m2
14:56 86.6 °F 53.3 °F 29.88 in West 5.0 mph 7.0 mph 32 % 0.00 in 788.00 W/m2
15:01 86.5 °F 53.2 °F 29.88 in Calm   7.0 mph 32 % 0.00 in 772.00 W/m2
15:06 86.4 °F 52.2 °F 29.88 in WNW 1.0 mph 7.0 mph 31 % 0.00 in 766.00 W/m2
15:11 86.4 °F 52.2 °F 29.88 in West 1.0 mph 6.0 mph 31 % 0.00 in 763.00 W/m2
15:16 86.2 °F 52.9 °F 29.87 in Calm   8.0 mph 32 % 0.00 in 751.00 W/m2
15:21 86.2 °F 51.2 °F 29.87 in West 6.0 mph 6.0 mph 30 % 0.00 in 738.00 W/m2
15:26 86.3 °F 52.1 °F 29.87 in West 4.0 mph 8.0 mph 31 % 0.00 in 729.00 W/m2
15:31 86.5 °F 51.4 °F 29.87 in West 6.0 mph 9.0 mph 30 % 0.00 in 717.00 W/m2
15:36 86.6 °F 52.4 °F 29.88 in West 3.0 mph 7.0 mph 31 % 0.00 in 707.00 W/m2
15:41 86.5 °F 53.2 °F 29.87 in Calm   7.0 mph 32 % 0.00 in 700.00 W/m2
15:46 86.3 °F 52.1 °F 29.87 in Calm   5.0 mph 31 % 0.00 in 687.00 W/m2
15:51 86.2 °F 51.2 °F 29.87 in Calm   7.0 mph 30 % 0.00 in 675.00 W/m2
15:56 86.1 °F 52.0 °F 29.87 in Calm   7.0 mph 31 % 0.00 in 666.00 W/m2
16:01 86.1 °F 52.0 °F 29.87 in Calm   6.0 mph 31 % 0.00 in 652.00 W/m2
16:06 86.1 °F 52.0 °F 29.87 in Calm   7.0 mph 31 % 0.00 in 638.00 W/m2
16:11 86.2 °F 52.0 °F 29.87 in Calm   5.0 mph 31 % 0.00 in 628.00 W/m2
16:16 86.2 °F 51.2 °F 29.87 in Calm   8.0 mph 30 % 0.00 in 615.00 W/m2
16:21 86.3 °F 51.2 °F 29.87 in West 1.0 mph 8.0 mph 30 % 0.00 in 603.00 W/m2
16:26 86.3 °F 51.2 °F 29.87 in West 4.0 mph 8.0 mph 30 % 0.00 in 589.00 W/m2
16:31 86.3 °F 52.1 °F 29.87 in Calm   7.0 mph 31 % 0.00 in 575.00 W/m2
16:36 86.2 °F 51.2 °F 29.87 in Calm   5.0 mph 30 % 0.00 in 561.00 W/m2
16:41 86.1 °F 51.1 °F 29.86 in Calm   10.0 mph 30 % 0.00 in 548.00 W/m2
16:46 86.0 °F 51.0 °F 29.86 in NW 4.0 mph 8.0 mph 30 % 0.00 in 533.00 W/m2
16:51 85.9 °F 51.8 °F 29.86 in WNW 4.0 mph 6.0 mph 31 % 0.00 in 515.00 W/m2
16:56 85.8 °F 51.7 °F 29.86 in Calm   4.0 mph 31 % 0.00 in 503.00 W/m2
17:01 85.7 °F 51.6 °F 29.86 in WNW 2.0 mph 5.0 mph 31 % 0.00 in 487.00 W/m2
17:06 85.6 °F 52.4 °F 29.86 in Calm   7.0 mph 32 % 0.00 in 473.00 W/m2
17:11 85.6 °F 52.4 °F 29.86 in WNW 1.0 mph 2.0 mph 32 % 0.00 in 457.00 W/m2
17:16 85.5 °F 52.3 °F 29.85 in West 8.0 mph 8.0 mph 32 % 0.00 in 445.00 W/m2
17:21 85.6 °F 51.5 °F 29.85 in Calm   10.0 mph 31 % 0.00 in 425.00 W/m2
17:26 85.6 °F 53.2 °F 29.85 in WSW 7.0 mph 8.0 mph 33 % 0.00 in 411.00 W/m2
17:31 85.6 °F 52.4 °F 29.85 in WSW 3.0 mph 9.0 mph 32 % 0.00 in 394.00 W/m2
17:36 85.6 °F 53.2 °F 29.85 in WSW 1.0 mph 8.0 mph 33 % 0.00 in 378.00 W/m2
17:41 85.4 °F 53.0 °F 29.85 in Calm   5.0 mph 33 % 0.00 in 367.00 W/m2
17:46 85.2 °F 53.7 °F 29.85 in Calm   4.0 mph 34 % 0.00 in 352.00 W/m2
17:51 85.1 °F 54.4 °F 29.84 in Calm   1.0 mph 35 % 0.00 in 332.00 W/m2
17:56 85.0 °F 53.5 °F 29.84 in Calm   5.0 mph 34 % 0.00 in 318.00 W/m2
18:01 84.8 °F 54.1 °F 29.84 in Calm   4.0 mph 35 % 0.00 in 302.00 W/m2
18:06 84.7 °F 54.0 °F 29.84 in Calm   4.0 mph 35 % 0.00 in 288.00 W/m2
18:11 84.5 °F 53.9 °F 29.84 in West 4.0 mph 6.0 mph 35 % 0.00 in 272.00 W/m2
18:16 84.4 °F 54.6 °F 29.84 in Calm   4.0 mph 36 % 0.00 in 260.00 W/m2
18:21 84.3 °F 53.7 °F 29.84 in Calm   4.0 mph 35 % 0.00 in 244.00 W/m2
18:26 84.2 °F 54.4 °F 29.84 in Calm   4.0 mph 36 % 0.00 in 227.00 W/m2
18:31 84.1 °F 55.0 °F 29.84 in Calm   1.0 mph 37 % 0.00 in 211.00 W/m2
18:36 84.1 °F 55.8 °F 29.84 in Calm   3.0 mph 38 % 0.00 in 195.00 W/m2
18:41 83.9 °F 55.6 °F 29.83 in West 3.0 mph 4.0 mph 38 % 0.00 in 178.00 W/m2
18:46 83.8 °F 55.5 °F 29.83 in Calm   5.0 mph 38 % 0.00 in 162.00 W/m2
18:51 83.5 °F 56.7 °F 29.83 in Calm   1.0 mph 40 % 0.00 in 146.00 W/m2
18:56 83.1 °F 56.3 °F 29.83 in Calm   1.0 mph 40 % 0.00 in 128.00 W/m2
19:01 82.8 °F 56.0 °F 29.83 in Calm   5.0 mph 40 % 0.00 in 107.00 W/m2
19:06 82.4 °F 56.4 °F 29.83 in Calm   4.0 mph 41 % 0.00 in 91.00 W/m2
19:11 81.8 °F 56.5 °F 29.83 in Calm   1.0 mph 42 % 0.00 in 76.00 W/m2
19:16 81.3 °F 56.7 °F 29.83 in Calm   2.0 mph 43 % 0.00 in 60.00 W/m2
19:21 81.0 °F 56.4 °F 29.83 in Calm   1.0 mph 43 % 0.00 in 51.00 W/m2
19:26 80.7 °F 56.8 °F 29.83 in Calm   1.0 mph 44 % 0.00 in 40.00 W/m2
19:31 80.3 °F 56.4 °F 29.83 in Calm     44 % 0.00 in 32.00 W/m2
19:36 80.0 °F 56.2 °F 29.83 in Calm     44 % 0.00 in 23.00 W/m2
19:41 79.6 °F 56.4 °F 29.83 in Calm     45 % 0.00 in 18.00 W/m2
19:46 79.2 °F 56.7 °F 29.83 in Calm     46 % 0.00 in 14.00 W/m2
19:51 78.8 °F 56.3 °F 29.83 in Calm     46 % 0.00 in 12.00 W/m2
19:56 78.3 °F 56.4 °F 29.84 in Calm     47 % 0.00 in 9.00 W/m2
20:01 77.9 °F 56.1 °F 29.83 in Calm     47 % 0.00 in 7.00 W/m2
20:06 77.5 °F 55.7 °F 29.84 in Calm     47 % 0.00 in 5.00 W/m2
20:11 77.2 °F 55.4 °F 29.84 in Calm   1.0 mph 47 % 0.00 in 0.00 W/m2
20:16 76.9 °F 55.7 °F 29.84 in Calm     48 % 0.00 in 0.00 W/m2
20:21 76.5 °F 55.4 °F 29.84 in Calm     48 % 0.00 in 0.00 W/m2
20:26 76.1 °F 55.0 °F 29.84 in Calm     48 % 0.00 in 0.00 W/m2
20:31 75.8 °F 55.3 °F 29.84 in Calm     49 % 0.00 in 0.00 W/m2
20:36 75.5 °F 55.0 °F 29.84 in Calm     49 % 0.00 in 0.00 W/m2
20:41 75.2 °F 54.8 °F 29.84 in Calm     49 % 0.00 in 0.00 W/m2
20:46 75.1 °F 54.7 °F 29.84 in Calm     49 % 0.00 in 0.00 W/m2
20:51 74.9 °F 54.5 °F 29.84 in Calm     49 % 0.00 in 0.00 W/m2
20:56 74.8 °F 54.4 °F 29.84 in Calm     49 % 0.00 in 0.00 W/m2
21:01 74.7 °F 54.3 °F 29.85 in Calm     49 % 0.00 in 0.00 W/m2
21:06 74.7 °F 54.3 °F 29.85 in Calm     49 % 0.00 in 0.00 W/m2
21:11 74.6 °F 54.8 °F 29.85 in Calm     50 % 0.00 in 0.00 W/m2
21:16 74.5 °F 54.7 °F 29.85 in Calm     50 % 0.00 in 0.00 W/m2
21:21 74.5 °F 54.7 °F 29.85 in Calm     50 % 0.00 in 0.00 W/m2
21:26 74.4 °F 54.6 °F 29.85 in Calm     50 % 0.00 in 0.00 W/m2
21:31 74.3 °F 54.5 °F 29.85 in Calm     50 % 0.00 in 0.00 W/m2
21:36 74.3 °F 54.5 °F 29.85 in Calm     50 % 0.00 in 0.00 W/m2
21:41 74.3 °F 54.5 °F 29.85 in Calm     50 % 0.00 in 0.00 W/m2
21:46 74.2 °F 54.4 °F 29.85 in Calm     50 % 0.00 in 0.00 W/m2
21:51 74.2 °F 54.4 °F 29.85 in Calm     50 % 0.00 in 0.00 W/m2
21:56 74.2 °F 54.4 °F 29.85 in Calm     50 % 0.00 in 0.00 W/m2
22:01 74.1 °F 54.3 °F 29.85 in Calm     50 % 0.00 in 0.00 W/m2
22:06 73.9 °F 54.7 °F 29.85 in Calm     51 % 0.00 in 0.00 W/m2
22:11 73.7 °F 54.5 °F 29.85 in Calm     51 % 0.00 in 0.00 W/m2
22:16 73.6 °F 54.4 °F 29.85 in Calm     51 % 0.00 in 0.00 W/m2
22:21 73.5 °F 54.3 °F 29.85 in Calm     51 % 0.00 in 0.00 W/m2
22:26 73.4 °F 54.7 °F 29.85 in Calm     52 % 0.00 in 0.00 W/m2
22:31 73.4 °F 54.2 °F 29.85 in Calm   4.0 mph 51 % 0.00 in 0.00 W/m2
22:36 73.3 °F 54.6 °F 29.85 in Calm   1.0 mph 52 % 0.00 in 0.00 W/m2
22:41 73.2 °F 54.5 °F 29.85 in Calm     52 % 0.00 in 0.00 W/m2
22:46 73.2 °F 54.5 °F 29.85 in Calm     52 % 0.00 in 0.00 W/m2
22:51 73.1 °F 54.5 °F 29.85 in Calm   1.0 mph 52 % 0.00 in 0.00 W/m2
22:56 73.1 °F 54.5 °F 29.85 in Calm   5.0 mph 52 % 0.00 in 0.00 W/m2
23:01 73.0 °F 54.4 °F 29.85 in Calm     52 % 0.00 in 0.00 W/m2
23:06 72.9 °F 54.3 °F 29.85 in Calm     52 % 0.00 in 0.00 W/m2
23:11 72.8 °F 54.2 °F 29.85 in Calm     52 % 0.00 in 0.00 W/m2
23:16 72.8 °F 54.2 °F 29.85 in Calm   4.0 mph 52 % 0.00 in 0.00 W/m2
23:22 72.7 °F 54.1 °F 29.85 in Calm     52 % 0.00 in 0.00 W/m2
23:27 72.6 °F 54.0 °F 29.85 in Calm   1.0 mph 52 % 0.00 in 0.00 W/m2
23:32 72.6 °F 54.0 °F 29.85 in Calm   4.0 mph 52 % 0.00 in 0.00 W/m2
23:37 72.5 °F 53.9 °F 29.85 in Calm   3.0 mph 52 % 0.00 in 0.00 W/m2
23:42 72.4 °F 53.8 °F 29.85 in WSW 3.0 mph 5.0 mph 52 % 0.00 in 0.00 W/m2
23:47 72.3 °F 53.7 °F 29.85 in SE 5.0 mph 7.0 mph 52 % 0.00 in 0.00 W/m2
23:52 72.2 °F 53.6 °F 29.85 in ESE 4.0 mph 11.0 mph 52 % 0.00 in 0.00 W/m2
23:57 72.2 °F 54.1 °F 29.85 in East 5.0 mph 7.0 mph 53 % 0.00 in 0.00 W/m2
Juneau County Weather
Compliments of Weather Underground - 4.5 mb
 WU-history PHP script courtesy of   Juneau County Weather.
powered by Cumulus v1.9.3 (1059)
Ambient Weather VWS v14.00
Top Contact Website Map Copyright © 2007 - 2018 Foresthillweather.com Never base important decisions on this or any weather information obtained from the Internet